THOR ABLESTAR DEB, 2701

Orbit data source: Space-Track

THOR ABLESTAR DEB, 2701 is space debris in LEO originally from a launch on Thu, 24 Jun 1965 UTC launched from the Air Force Western Test Range (AFWTR). Debris objects in space refer to the collection of defunct objects orbiting the Earth. Examples of debris include non-operational satellites, rocket bodies, and fragments generated from explosions, collisions, or faulty payload assembly.

Loading next visibility...
Identifier
2701, 1965-048E
Orbit
LEO
Country
Flag of USUS
Related business
Manufacturer
Unknown
Mission
Spacecraft
Bus & Motor
Unknown
Mass
Unknown
Launch date (UTC)
1965-06-24 (61 years ago)
Launch vehicle
Unknown
Launch site
Air Force Western Test Range (AFWTR)
Object type
Payload
Rocket body
Debris
Shape & HBR
Unknown shape, 0.1 m
Radar Cross Section
Small (<0.1 m²)

Expand to show TLE details & history
Last TLE update: 6 hours ago

TLE from 6 hours ago
0 THOR ABLESTAR DEB
1 02701U 65048E   26105.51678316  .00000226  00000-0  26763-3 0  9991
2 02701  89.8717 288.2375 0064922  71.7607 343.7809 13.63939777 12752
Epoch: 2026-04-15T12:24Z
TLE epoch observation values (Epoch: 2026-04-15T12:24:10.065Z)
Latitude
55.42709°
Longitude
-101.29679°
Altitude
984.579 km
Speed
7.388 km/s
True Right ascension
19h 13m 41s
True Declination
55° 16' 16"
Sunlit
Object was in daylight at epoch
Visualization orbit readout
Latitude
Unknown
Longitude
Unknown
Altitude
Unknown
Speed
Unknown
Apparent Right ascension
Unknown
Apparent Declination
Unknown
Sunlit
N/A
Visualization observer readout
Local Sidereal Time
01:22:06
Azimuth
Unknown
Elevation
Unknown
Doppler factor
Unknown
Orbital elements
Apogee altitude
1,066.458 km
Perigee altitude
970.418 km
Semi-major axis
7,396.575 km
Eccentricity
0.00649
Inclination
89.8717°
RAAN
288.2375°
Arg. of periapsis
71.7607°
True anomaly
343.57148°
Mean anomaly
343.7809°
Eccentric anomaly
343.67635°
Mean motion
3.41191 °/min
Orbital period
105.51 mins
BSTAR
0.00026763
Loading maneuver chart data...
Computing Atmospheric mass density...

Documentation

Showing up to 5 results
|